Date String (YYYY-MM-DD hh:mm:ss) UTC,Instrument flags,Ambient pressure (hPa),Sample flow (lpm),Bypass flow (lpm),Sample temperature (°C),Ambient temperature (°C),ASC tube jacket temperature (°C),LED temperature (°C),Box temperature (°C),Sample RH (%),Span deviation,Mass concentration (μg/m³),Mass concentration (μg/m³),Mass concentration (μg/m³)
DateTimeUTC,F1_M11,P_M11,Q1_M11,Q2_M11,T1_M11,T2_M11,T3_M11,T4_M11,T5_M11,U1_M11,ZSPAN_M11,X2_M11,X0_M11,X1_M11
2023-05-23 22:00:00,,0829.7,5.00,0.00,29.2,27.4,00.0,37.5,31.0,22.6,0003.6,0018.50,0025.82,0017.57
2023-05-23 22:01:00,,0829.7,5.00,0.00,29.2,27.6,00.0,37.5,31.0,22.5,0003.6,0018.49,0025.78,0017.56
2023-05-23 22:02:00,,0829.7,5.00,0.00,29.3,27.8,00.0,37.5,31.1,21.9,0003.6,0018.45,0025.52,0017.53
2023-05-23 22:03:00,,0829.7,5.00,0.00,29.3,28.0,00.0,37.6,31.1,22.2,0003.5,0018.45,0025.58,0017.51
2023-05-23 22:04:00,,0829.7,5.00,0.00,29.4,28.1,00.0,37.6,31.2,21.8,0003.5,0018.44,0026.13,0017.46
2023-05-23 22:05:00,,0829.7,4.99,0.00,29.4,28.2,00.0,37.6,31.2,21.7,0003.6,0018.38,0025.95,0017.42
2023-05-23 22:06:00,,0829.7,4.99,0.00,29.4,27.7,00.0,37.6,31.2,22.1,0003.7,0018.34,0026.19,0017.38
2023-05-23 22:07:00,,0829.7,5.00,0.00,29.4,25.9,00.0,37.5,30.9,22.5,0003.6,0018.34,0026.55,0017.36
2023-05-23 22:08:00,,0829.7,5.01,0.00,29.3,25.0,00.0,37.5,30.7,22.7,0003.5,0018.33,0027.92,0017.35
2023-05-23 22:09:00,,0829.7,5.02,0.00,29.3,25.2,00.0,37.4,30.6,22.3,0003.5,0018.35,0028.25,0017.36
2023-05-23 22:10:00,,0829.7,5.00,0.00,29.2,25.5,00.0,37.4,30.6,22.3,0003.6,0018.36,0028.74,0017.37
2023-05-23 22:11:00,,0829.7,5.00,0.00,29.1,25.9,00.0,37.4,30.7,23.2,0003.6,0018.41,0030.28,0017.40
2023-05-23 22:12:00,,0829.7,5.00,0.00,29.1,26.3,00.0,37.5,30.7,23.0,0003.6,0018.47,0030.42,0017.43
2023-05-23 22:13:00,,0829.7,5.00,0.00,29.1,26.6,00.0,37.5,30.8,23.2,0003.6,0018.53,0030.53,0017.47
2023-05-23 22:14:00,,0829.7,4.99,0.00,29.2,27.0,00.0,37.5,30.9,23.1,0003.7,0018.61,0030.48,0017.53
2023-05-23 22:15:00,,0829.8,5.00,0.00,29.2,27.2,00.0,37.5,30.9,23.8,0003.8,0018.75,0030.09,0017.63
2023-05-23 22:16:00,,0829.8,5.00,0.00,29.2,27.5,00.0,37.5,31.0,23.7,0003.8,0018.91,0030.25,0017.75
2023-05-23 22:17:00,,0829.8,5.00,0.00,29.3,27.7,00.0,37.5,31.0,23.7,0003.8,0019.04,0030.33,0017.86
2023-05-23 22:18:00,,0829.8,4.99,0.00,29.3,27.8,00.0,37.5,31.1,22.7,0003.6,0019.13,0030.49,0017.97
2023-05-23 22:19:00,,0829.8,4.99,0.00,29.3,28.0,00.0,37.6,31.1,22.6,0003.6,0019.27,0030.64,0018.09
2023-05-23 22:20:00,,0829.8,4.99,0.00,29.4,28.1,00.0,37.6,31.2,22.7,0003.6,0019.42,0031.50,0018.21
2023-05-23 22:21:00,,0829.8,5.00,0.00,29.4,28.2,00.0,37.6,31.2,23.5,0003.6,0019.56,0032.11,0018.31
2023-05-23 22:22:00,,0829.8,5.00,0.00,29.4,27.6,00.0,37.6,31.2,23.4,0003.7,0019.63,0031.36,0018.37
2023-05-23 22:23:00,,0829.8,5.00,0.00,29.4,26.2,00.0,37.5,30.9,23.2,0003.6,0019.73,0031.81,0018.45
2023-05-23 22:24:00,,0829.8,5.01,0.00,29.4,25.9,00.0,37.5,30.9,23.0,0003.6,0019.80,0032.55,0018.50
2023-05-23 22:25:00,,0829.8,5.01,0.00,29.3,26.1,00.0,37.5,30.8,22.8,0003.4,0019.93,0032.90,0018.62
2023-05-23 22:26:00,,0829.8,5.01,0.00,29.3,26.4,00.0,37.5,30.8,22.7,0003.4,0020.00,0033.04,0018.71
2023-05-23 22:27:00,,0829.8,4.99,0.00,29.3,26.7,00.0,37.5,30.9,22.8,0003.5,0020.02,0033.15,0018.74
2023-05-23 22:28:00,,0829.8,5.00,0.00,29.3,27.0,00.0,37.5,30.9,22.7,0003.3,0020.04,0033.97,0018.78
2023-05-23 22:29:00,,0829.8,5.00,0.00,29.3,27.3,00.0,37.6,31.0,23.5,0003.4,0020.14,0034.66,0018.83
2023-05-23 22:30:00,,0829.8,5.01,0.00,29.3,27.5,00.0,37.6,31.1,23.5,0003.5,0020.24,0035.17,0018.88
2023-05-23 22:31:00,,0829.8,4.99,0.00,29.3,27.7,00.0,37.6,31.1,23.5,0003.4,0020.23,0034.50,0018.87
2023-05-23 22:32:00,,0829.8,5.00,0.00,29.4,27.9,00.0,37.6,31.2,24.1,0003.4,0020.20,0033.72,0018.85
2023-05-23 22:33:00,,0829.8,5.00,0.00,29.4,28.0,00.0,37.6,31.2,23.3,0003.4,0020.20,0033.87,0018.86
2023-05-23 22:34:00,,0829.8,5.01,0.00,29.4,27.8,00.0,37.6,31.2,23.6,0003.4,0020.16,0034.18,0018.83
2023-05-23 22:35:00,,0829.8,4.98,0.00,29.4,26.4,00.0,37.6,31.0,22.9,0003.4,0020.14,0033.83,0018.83
2023-05-23 22:36:00,,0829.8,5.01,0.00,29.4,25.8,00.0,37.5,30.9,22.6,0003.4,0020.07,0033.82,0018.78
2023-05-23 22:37:00,,0829.8,5.01,0.00,29.3,26.0,00.0,37.5,30.8,23.8,0003.4,0019.94,0034.82,0018.70
2023-05-23 22:38:00,,0829.8,5.01,0.00,29.3,26.3,00.0,37.5,30.8,23.3,0003.4,0019.91,0034.82,0018.69
2023-05-23 22:39:00,,0829.8,4.99,0.00,29.3,26.6,00.0,37.5,30.9,23.5,0003.6,0019.96,0034.40,0018.72
2023-05-23 22:40:00,,0829.8,5.00,0.00,29.3,26.9,00.0,37.6,30.9,23.1,0003.6,0019.98,0034.60,0018.75
2023-05-23 22:41:00,,0829.8,5.01,0.00,29.3,27.2,00.0,37.6,31.0,23.2,0003.6,0020.00,0034.40,0018.79
2023-05-23 22:42:00,,0829.8,5.00,0.00,29.3,27.4,00.0,37.6,31.0,23.6,0003.6,0019.98,0033.60,0018.82
2023-05-23 22:43:00,,0829.8,5.00,0.00,29.3,27.6,00.0,37.6,31.1,23.0,0003.6,0020.04,0033.58,0018.87
2023-05-23 22:44:00,,0829.9,5.00,0.00,29.4,27.8,00.0,37.6,31.1,23.5,0003.7,0020.09,0033.45,0018.93
2023-05-23 22:45:00,,0829.8,4.99,0.00,29.4,28.0,00.0,37.7,31.2,23.4,0003.7,0020.14,0033.02,0018.99
2023-05-23 22:46:00,,0829.8,4.98,0.00,29.4,27.5,00.0,37.6,31.2,23.2,0003.6,0020.22,0032.99,0019.07
2023-05-23 22:47:00,,0829.8,5.01,0.00,29.4,26.1,00.0,37.6,30.9,22.8,0003.7,0020.33,0035.14,0019.14
2023-05-23 22:48:00,,0829.8,5.00,0.00,29.4,25.9,00.0,37.5,30.9,22.5,0003.7,0020.49,0034.85,0019.29
2023-05-23 22:49:00,,0829.8,5.01,0.00,29.3,26.1,00.0,37.5,30.8,23.2,0003.7,0020.65,0034.81,0019.43
2023-05-23 22:50:00,,0829.8,4.99,0.00,29.3,26.4,00.0,37.5,30.8,23.4,0003.6,0020.70,0034.89,0019.48
2023-05-23 22:51:00,,0829.8,5.00,0.00,29.3,26.7,00.0,37.5,30.9,23.4,0003.6,0020.78,0035.04,0019.53
2023-05-23 22:52:00,,0829.8,5.00,0.00,29.3,27.0,00.0,37.6,31.0,23.2,0003.7,0020.88,0034.75,0019.61
2023-05-23 22:53:00,,0829.8,5.00,0.00,29.3,27.3,00.0,37.6,31.0,22.6,0003.7,0021.05,0036.30,0019.71
2023-05-23 22:54:00,,0829.8,5.00,0.00,29.3,27.5,00.0,37.6,31.1,23.1,0003.7,0021.19,0036.94,0019.81
2023-05-23 22:55:00,,0829.8,4.99,0.00,29.4,27.7,00.0,37.6,31.1,22.4,0003.7,0021.34,0037.62,0019.92
2023-05-23 22:56:00,,0829.8,5.01,0.00,29.4,27.9,00.0,37.6,31.2,22.4,0003.6,0021.44,0038.06,0020.01
2023-05-23 22:57:00,,0829.9,5.00,0.00,29.4,28.1,00.0,37.7,31.2,22.6,0003.8,0021.50,0038.75,0020.06
2023-05-23 22:58:00,,0829.9,5.00,0.00,29.5,27.9,00.0,37.7,31.2,22.6,0003.7,0021.51,0037.06,0020.10
2023-05-23 22:59:00,,0829.8,4.99,0.00,29.4,26.3,00.0,37.6,30.9,22.7,0003.7,0021.53,0036.36,0020.10
